📊 Raw Sensor Data

Showing records 52276 to 52300 of 85,276 total

ID Distance (ft) Battery V Battery A Int Temp (°F) Int Humid (%) Ext Temp (°F) Solar V RSSI SNR Time Stamp
33013 14.3 3.76 0 62 34 58 5.10 -75 8 02/21/2025 10:30 AM
33012 14.3 3.76 0 60 34 58 5.10 -75 7 02/21/2025 10:15 AM
33011 14.3 4.06 0 58 35 55 5.10 -77 7 02/21/2025 10:00 AM
33010 14.2 3.76 0 56 34 55 5.10 -77 8 02/21/2025 09:45 AM
33009 14.3 3.77 0 55 34 53 5.10 -77 8 02/21/2025 09:30 AM
33008 14.2 4.01 0 53 34 52 5.10 -77 7 02/21/2025 09:15 AM
33007 14.2 3.83 0 50 35 52 5.10 -77 8 02/21/2025 09:00 AM
33006 14.1 3.77 0 47 35 50 5.10 -77 8 02/21/2025 08:45 AM
33005 14.1 3.77 0 44 36 47 5.10 -78 7 02/21/2025 08:30 AM
33004 14.1 3.85 26 43 36 44 4.50 -77 8 02/21/2025 08:15 AM
33003 14.1 3.84 0 43 36 45 4.50 -77 9 02/21/2025 08:00 AM
33002 14.0 3.82 -9 42 36 44 4.50 -77 8 02/21/2025 07:45 AM
33001 14.0 3.80 6 42 36 43 4.50 -77 8 02/21/2025 07:30 AM
33000 14.0 3.78 0 41 37 43 4.50 -78 7 02/21/2025 07:15 AM
32999 14.0 3.82 -10 41 36 43 4.50 -77 9 02/21/2025 07:00 AM
32998 14.0 3.82 -10 40 37 43 4.20 -77 8 02/21/2025 06:45 AM
32997 14.0 3.78 -5 39 37 42 0.40 -77 8 02/21/2025 06:30 AM
32996 14.0 3.78 -5 39 37 41 0.00 -76 8 02/21/2025 06:15 AM
32995 14.0 3.83 -5 39 37 40 0.00 -77 8 02/21/2025 06:00 AM
32994 14.0 3.78 -5 39 37 40 0.00 -77 8 02/21/2025 05:45 AM
32993 14.0 3.83 -5 39 37 40 0.00 -77 8 02/21/2025 05:30 AM
32992 14.0 3.78 -5 39 37 41 0.00 -77 8 02/21/2025 05:15 AM
32991 14.0 3.78 -5 39 37 41 0.00 -78 8 02/21/2025 05:00 AM
32990 14.0 3.78 -5 39 37 41 0.00 -77 8 02/21/2025 04:45 AM
32989 14.0 3.83 -5 38 38 41 0.00 -77 8 02/21/2025 04:30 AM